Content
SEND FEEDBACK

Daily
Averages
Monthly
Summary
Italy

VENICE, ITALY


Home > Europe > Italy
Elevation: 20 feet     Latitude: 45 30N     Longitude: 012 20E

WEATHER
 
SELECT A DAY
Number of Records: 303,237;   Date Range: 7/1/96 - 8/10/14
 
SHARE

PRINT THIS DATA

[ ← Previous Day ]
WEATHER ALMANAC - DECEMBER 7, 2013
[ Next Day → ]
[ °C ]   °F
Weather ElementAverageHighLow
Temperature41 °F48.2 °F (12:50 pm)35.6 °F (2:20 am)
Dewpoint32.2 °F35.6 °F (9:50 am)26.6 °F (8:20 pm)
Humidity72.3 %93 % (2:20 am)53 % (7:50 pm)
Barometer30.17 in30.30 in (10:50 pm)30.01 in (12:50 am)
Wind Speed3.5 mph9.2 mph (11:20 pm)
Weather ElementAverage
Visibility4.1 mi
Wind DirectionNE (40.4 °)

Weather ElementTotal
Precipitation---
Heating Degree Days23.1 (Base 65)
Averaged from 47 records on December 7, 2013
WEATHER CONDITIONS BREAKOUT
WIND DIRECTION BREAKOUT
WEATHER BY HOUR - DECEMBER 7, 2013
[ °C ]   °F
Local TimeTemperatureDewpointHumidityBarometerVisibilityWind DirectionWind SpeedGust SpeedPrecipitationEventsConditions
12:50 AM41.0 °F33.8 °F76 %30.01 in3.1 miVariable3.5 mphMist
1:20 AM37.4 °F32.0 °F81 %30.04 in3.7 miVariable2.3 mph
1:50 AM37.4 °F32.0 °F81 %30.01 in3.7 miVariable2.3 mph
2:20 AM35.6 °F33.8 °F93 %30.04 in3.1 miNW (310°)4.6 mphMist
2:50 AM37.4 °F33.8 °F87 %30.04 in2.2 miVariable3.5 mphMist
3:20 AM35.6 °F33.8 °F93 %30.06 in2.2 miVariable2.3 mphMist
3:50 AM35.6 °F32.0 °F87 %30.04 in2.5 miVariable1.2 mphMist
4:20 AM35.6 °F33.8 °F93 %30.04 in2.5 miVariable1.2 mphMist
4:50 AM35.6 °F33.8 °F93 %30.06 in2.5 miVariable2.3 mphMist
5:20 AM37.4 °F33.8 °F87 %30.06 in2.5 miVariable2.3 mphMist
5:50 AM35.6 °F33.8 °F93 %30.06 in2.5 miVariable2.3 mphMist
6:20 AM37.4 °F33.8 °F87 %30.09 in3.1 miVariable3.5 mphMist
6:50 AM37.4 °F32.0 °F81 %30.09 in3.1 miVariable2.3 mphMist
7:20 AM35.6 °F32.0 °F87 %30.09 inVariable2.3 mphClear
7:50 AM37.4 °F33.8 °F87 %30.12 inVariable2.3 mphClear
8:20 AM35.6 °F30.2 °F81 %30.12 inVariable3.5 mphClear
8:50 AM37.4 °F32.0 °F81 %30.15 inVariable1.2 mphClear
9:20 AM37.4 °F33.8 °F87 %30.15 inVariable3.5 mphClear
9:50 AM41.0 °F35.6 °F81 %30.18 inVariable1.2 mphClear
10:20 AM42.8 °F35.6 °F76 %30.18 inVariable2.3 mphClear
10:50 AM42.8 °F35.6 °F76 %30.21 inVariable2.3 mphClear
11:20 AM46.4 °F33.8 °F62 %30.21 inVariable2.3 mphClear
11:50 AM46.4 °F32.0 °F57 %30.21 in6.2 miVariable3.5 mphPartly Cloudy
12:20 PM46.4 °F32.0 °F57 %30.21 in6.2 miVariable1.2 mphScattered Clouds
12:50 PM48.2 °F35.6 °F62 %30.21 in6.2 miCalmPartly Cloudy
1:20 PM48.2 °F33.8 °F58 %30.18 in6.2 miVariable1.2 mphPartly Cloudy
1:50 PM48.2 °F32.0 °F54 %30.18 inVariable1.2 mphClear
2:20 PM48.2 °F33.8 °F58 %30.18 in6.2 miCalmPartly Cloudy
2:50 PM46.4 °F33.8 °F62 %30.21 inVariable2.3 mphClear
3:20 PM46.4 °F33.8 °F62 %30.21 inVariable1.2 mphClear
3:50 PM46.4 °F33.8 °F62 %30.21 inNNE (30°)4.6 mphClear
4:20 PM46.4 °F33.8 °F62 %30.21 inNNE (20°)5.8 mphClear
4:50 PM44.6 °F33.8 °F66 %30.24 inNNE (20°)4.6 mphClear
5:20 PM42.8 °F33.8 °F70 %30.24 inVariable3.5 mphClear
5:50 PM42.8 °F32.0 °F66 %30.24 inVariable3.5 mphClear
6:20 PM42.8 °F30.2 °F61 %30.24 inVariable3.5 mphClear
6:50 PM42.8 °F32.0 °F66 %30.24 inNNE (20°)5.8 mphClear
7:20 PM44.6 °F30.2 °F57 %30.24 inNNE (20°)6.9 mphClear
7:50 PM44.6 °F28.4 °F53 %30.24 inNNE (30°)8.1 mphClear
8:20 PM41.0 °F26.6 °F57 %30.27 in5.6 miVariable3.5 mph
8:50 PM41.0 °F28.4 °F61 %30.27 in5.6 miVariable3.5 mph
9:20 PM39.2 °F28.4 °F65 %30.27 in5.0 miNorth (350°)4.6 mph
9:50 PM39.2 °F28.4 °F65 %30.27 in4.3 miNorth (360°)5.8 mph
10:20 PM37.4 °F28.4 °F70 %30.27 in4.3 miNorth (360°)6.9 mph
10:50 PM39.2 °F28.4 °F65 %30.30 in5.6 miNorth (10°)8.1 mph
11:20 PM39.2 °F28.4 °F65 %30.30 inNorth (10°)9.2 mphClear
11:50 PM39.2 °F28.4 °F65 %30.30 inNorth (360°)9.2 mphClear
Hourly data recorded from LIPZ, located miles away from Venice, Italy







STORIES FROM OUR PARTNERS